GW1538 Weather Reports


time (UTC)temp
C
wind
direction
speed
KPH
gust
KPH
rain 1hr
cm
rain 24hr
cm
rain mn
cm
humidity
%
barometer
mb
20260507151552 7 143 3.2 6.4 0.05 1.37 1.19 94 1013.4
20260507144547 8 199 1.6 12.9 0.05 1.37 1.17 94 1013.3
20260507141552 8 307 4.8 11.3 0.05 1.32 1.14 92 1013.5
20260507140043 8 247 3.2 9.7 0.05 1.30 1.12 92 1013.4
20260507133055 6 323 0.0 9.7 0.05 1.32 1.12 96 1013.6
20260507131547 5 77 4.8 9.7 0.05 1.32 1.09 95 1013.7
20260507124554 3 149 1.6 4.8 0.05 1.32 1.09 96 1013.9
20260507123049 3 112 1.6 6.4 0.05 1.30 1.07 96 1013.9
20260507120050 5 307 8.0 22.5 0.05 1.27 1.04 96 1013.6
20260507113049 6 133 4.8 11.3 0.05 1.27 0.99 96 1013.1
20260507111524 6 155 3.2 12.9 0.05 1.24 0.99 96 1013.0
20260507104554 7 248 3.2 9.7 0.10 1.24 0.97 95 1013.2
20260507103049 7 120 1.6 6.4 0.10 1.22 0.94 95 1013.1
20260507100045 6 293 8.0 14.5 0.13 1.17 0.89 95 1013.4
20260507093055 6 281 8.0 12.9 0.13 1.17 0.84 95 1013.2
20260507091558 7 294 6.4 12.9 0.13 1.14 0.81 93 1013.1
20260507084550 7 264 9.7 16.1 0.13 1.09 0.74 94 1013.0
20260507083046 7 272 11.3 17.7 0.15 1.07 0.71 92 1012.8
20260507080036 6 253 1.6 12.9 0.15 0.99 0.66 91 1012.7
20260507073050 6 321 3.2 11.3 0.15 0.94 0.58 89 1012.5
20260507071535 6 340 1.6 9.7 0.15 0.89 0.53 91 1012.4
20260507064539 5 291 6.4 11.3 0.18 0.81 0.46 96 1012.2
20260507061601 5 134 0.0 0.0 0.15 0.74 0.38 93 1012.3
20260507054535 1 134 0.0 0.0 0.08 0.66 0.28 93 1012.0
20260507051543 0 134 0.0 0.0 0.08 0.61 0.23 95 1011.4
20260507050032 0 134 0.0 0.0 0.10 0.61 0.23 95 1011.1
20260507043042 0 134 0.0 0.0 0.08 0.58 0.18 96 1011.0
20260507041542 0 134 0.0 0.0 0.08 0.56 0.15 96 1010.9
20260507034607 0 134 0.0 3.2 0.03 0.51 0.10 96 1010.6
20260507033052 0 138 0.0 3.2 0.05 0.51 0.10 96 1010.6
20260507031549 0 138 0.0 0.0 0.03 0.48 0.08 96 1010.6
20260507030030 0 138 0.0 1.6 0.03 0.48 0.08 96 1010.5
20260507023032 0 138 0.0 3.2 0.00 0.48 0.05 96 1010.5
20260507021530 0 131 0.0 3.2 0.03 0.48 0.05 96 1010.5
20260507014559 1 137 3.2 6.4 0.03 0.51 0.05 96 1010.4
20260507013032 1 108 0.0 4.8 0.03 0.51 0.05 97 1010.6
20260507010053 2 123 4.8 16.1 0.00 0.48 0.05 94 1010.6
20260507004539 2 120 1.6 8.0 0.03 0.48 0.05 97 1010.6
20260507001544 2 237 1.6 12.9 0.03 0.48 0.05 96 1010.7
20260506234546 2 199 1.6 11.3 0.03 0.48 0.03 97 1010.7
20260506233049 3 91 4.8 16.1 0.03 0.48 0.03 96 1010.6
20260506231541 3 180 3.2 12.9 0.03 0.48 0.03 96 1010.9
20260506224542 5 235 1.6 6.4 0.00 0.48 0.00 96 1011.0
20260506223035 4 134 0.0 6.4 0.03 0.48 0.00 96 1011.0
20260506220121 5 85 0.0 6.4 0.03 0.48 0.00 96 1011.1
20260506213041 5 119 1.6 12.9 0.03 0.48 0.46 95 1011.1
20260506210055 5 54 1.6 4.8 0.03 0.48 0.46 95 1011.0
20260506204559 5 257 0.0 11.3 0.03 0.51 0.46 95 1010.8
20260506201547 5 135 1.6 9.7 0.03 0.48 0.43 95 1010.9
20260506194558 5 115 4.8 12.9 0.03 0.51 0.43 95 1010.5
20260506193044 5 69 4.8 8.0 0.03 0.48 0.43 96 1010.4
20260506191541 5 287 12.9 27.4 0.03 0.48 0.43 96 1010.3
20260506184552 5 131 6.4 12.9 0.03 0.51 0.43 96 1010.0
20260506183044 5 125 4.8 12.9 0.05 0.51 0.41 96 1009.9
20260506173104 6 83 0.0 8.0 0.03 0.48 0.38 96 1009.7
20260506171532 6 111 1.6 11.3 0.05 0.48 0.38 96 1009.4
20260506170034 7 291 3.2 9.7 0.03 0.46 0.36 96 1009.3
20260506163105 6 268 3.2 12.9 0.05 0.48 0.36 96 1009.3
20260506161542 6 111 3.2 12.9 0.03 0.46 0.33 96 1009.2
20260506160034 7 120 3.2 12.9 0.03 0.46 0.33 96 1009.4
20260506154523 7 255 9.7 19.3 0.05 0.51 0.33 96 1009.3